Regional Weather Roundup
Issued by NWS Kansas City/Pleasant Hill, MO

Home | Current Version | Previous Version | Text Only | Print | Product List | Glossary On
Versions: 1 2 3 4 5 6 7 8 9 10 11 12 13 14 15 16 17 18 19 20 21 22 23 24 25 26 27 28 29 30 31 32 33 34 35 36 37 38 39 40 41 42 43 44 45 46 47 48 49 50
000
ASUS43 KEAX 021204
RWREAX

WEATHER ROUNDUP FOR EASTERN KANSAS AND NORTHWEST MISSOURI
NATIONAL WEATHER SERVICE KANSAS CITY/PLEASANT HILL MO
700 AM CDT THU OCT 02 2014

KSZ040-057-103>105-MOZ028-029-037-043-021300-
...KANSAS CITY METROPOLITAN AREA...

CITY           SKY/WX    TMP DP  RH WIND       PRES   REMARKS
K.C. INTL      CLOUDY    66  66 100 SE7       29.74R
6HR MIN TEMP:  66; 6HR MAX TEMP:  68; 6HR PCP:  0.51;

K.C. DOWNTOWN  CLOUDY    69  65  86 SE5       29.74R
6HR MIN TEMP:  68; 6HR MAX TEMP:  69; 6HR PCP: TRACE;

LEES SUMMIT    LGT RAIN  66  64  93 SE9       29.76R
6HR MIN TEMP:  65; 6HR MAX TEMP:  66; 6HR PCP:  0.07;

OLATHE - IXD   CLOUDY    69  67  93 S12       29.75R
6HR MIN TEMP:  64; 6HR MAX TEMP:  69; 6HR PCP: TRACE;

OLATHE - OJC   LGT RAIN  68  66  93 SW7       29.75R
6HR MIN TEMP:  64; 6HR MAX TEMP:  68; 6HR PCP:  0.02;

LAWRENCE       CLOUDY    65  64  97 CALM      29.72S FOG

$$

MOZ001>008-011>017-020>025-030>033-038>040-044>046-053-054-021300-
...NORTHERN AND CENTRAL MISSOURI...

CITY           SKY/WX    TMP DP  RH WIND       PRES   REMARKS
ST. JOSEPH     CLOUDY    66  64  93 E6        29.73F
6HR MIN TEMP:  61; 6HR MAX TEMP:  66;

MOSBY          CLOUDY    64  64 100 SE7       29.74S
WHITEMAN AFB   TSTM      65  63  93 S9        29.77S FOG
6HR MIN TEMP:  64; 6HR MAX TEMP:  67; 6HR PCP:  0.79;

CLINTON        LGT RAIN  64  63  94 E7        29.81S
SEDALIA        LGT RAIN  67  63  87 SW12      29.82R FOG
6HR MIN TEMP:  65; 6HR MAX TEMP:  68; 6HR PCP:  0.82;

WARSAW         NOT AVBL
MARSHALL       CLOUDY    66  66 100 SE12      29.81R
CHILLICOTHE      N/A     65  63  93 SE5       29.78S
6HR MIN TEMP:  64; 6HR MAX TEMP:  66;

MOBERLY        TSTM      64  61  88 SE15G21   29.82R
KIRKSVILLE     CLOUDY    63  62  97 SE7       29.80S
6HR MIN TEMP:  62; 6HR MAX TEMP:  66; 6HR PCP:  0.01;


$$

MOZ041-047>049-056>058-063>065-088>090-097-021300-
...EASTERN AND SOUTHERN MISSOURI...

CITY           SKY/WX    TMP DP  RH WIND       PRES   REMARKS
ST. LOUIS INTL CLOUDY    68  65  90 NW7       29.91R
6HR MIN TEMP:  67; 6HR MAX TEMP:  71; 6HR PCP:  0.27;

SPIRIT OF STL  CLOUDY    67  64  90 NE3       29.88S
COLUMBIA       TSTM      66  64  93 NW5       29.87R FOG
MEXICO         LGT RAIN N/A N/A N/A SE8       29.84R
ROLLA          CLOUDY    66  64  93 E8        29.85S
LEBANON        CLOUDY    70  68  94 SE6       29.85R
OSAGE BEACH    CLOUDY    66  63  88 E7        29.82F
SPRINGFIELD    CLOUDY    72  69  90 S12       29.84R
BRANSON        CLOUDY    70  68  94 SE6       29.87R
NEVADA         LGT RAIN  66  64  94 SE16      29.75F
JOPLIN         LGT RAIN  67  64  90 S10       29.80F
WEST PLAINS    CLOUDY    69  66  90 S7        29.89R

$$

IAZ060-094-KSZ022-034>040-054-083-096-NEZ052-066-093-021300-
...KANSAS...SOUTHEAST NEBRASKA AND IOWA...

CITY           SKY/WX    TMP DP  RH WIND       PRES   REMARKS
TOPEKA         MOCLDY    65  65 100 CALM      29.72R
6HR MIN TEMP:  65; 6HR MAX TEMP:  69;

MANHATTAN      CLOUDY    64  63  96 VRB3      29.74R FOG
EMPORIA        PTCLDY    69  68  96 S7        29.73R
CHANUTE        CLOUDY    68  64  87 SE12      29.76R
WICHITA        MOCLDY    70  65  84 NW3       29.73R
OMAHA          FOG       64  63  96 N5        29.80S VSB 1/2
LINCOLN        MOCLDY    57  54  89 N12       29.80R
FALLS CITY     CLOUDY    65  64  97 N8        29.76R FOG
LAMONI         CLOUDY    64  63  96 SE6       29.77S
DES MOINES     FOG       65  64  97 SE6       29.78S VSB 1/2

$$



USA.gov is the U.S. government's official web portal to all federal, state and local government web resources and services.